Location: Ravensburg
(48.5621°N, 13.4088°E)
Time: 10:31:12
(UTC+02:00)

ISS - Pass Details

Date: 11 January 2018
Orbit: 402 x 409 km, 51.6° (Epoch: 21 August)

Event Time Altitude Azimuth Distance (km) Brightness Sun altitude
Exits shadow 04:23:57 - 82° (E) 1,678 0.2 -34.3°
Enters shadow 05:20:57 -67° 285° (WNW) 12,141 3.6 -24.8°
Maximum altitude 05:57:06 80° 204° (SSW) 433 -3.8 -18.9°
